Location: *
(35.2348°S, 91.3916°E)
Time: 11:26:00
(UTC+00:00)

Cosmos 1076 Rocket - Pass Details

Date: 23 October 2019
Orbit: 589 x 613 km, 82.5° (Epoch: 11 November)

Event Time Altitude Azimuth Distance (km) Brightness Sun altitude
Rises 13:12:12 0° 359° (N) 2,826 6.7 -11.7°
Reaches altitude 10° 13:14:24 10° 0° (N) 1,929 5.9 -12.1°
Maximum altitude 13:18:39 75° 85° (E) 623 3.4 -12.9°
Drops below altitude 10° 13:22:57 10° 170° (S) 1,950 6.3 -13.7°
Sets 13:25:10 0° 171° (S) 2,859 7.2 -14.1°
